Wind_Speed
30 28 26 25 22 22 22 23 22 22 19 17 14 11 10 11 10 9 9 10 11 12 13 12 12 13 15 17 18 19 19 15 10 9 9 9 7 7 5 6 8 7 10 13
33 32 29 26 26 21 25 24 24 21 20 14 10 11 10 9 8 9 9 11 12 13 13 14 13 16 19 20 23 23 20 16 11 8 8 8 9 8 7 7 10 11 9 13
37 34 32 28 27 26 25 27 25 23 16 11 10 10 10 9 8 9 9 10 11 12 14 15 16 20 23 26 27 26 23 18 13 11 10 10 9 7 8 9 9 7 10 15
40 37 34 35 31 29 25 30 24 19 13 10 11 10 9 8 8 7 9 10 12 14 16 19 22 24 29 30 30 29 28 22 17 17 16 16 12 9 8 8 4 6 12 11
43 37 33 38 28 30 30 27 22 17 12 12 13 12 9 8 7 8 9 11 13 13 17 21 25 30 33 36 34 33 34 30 24 21 20 18 10 10 7 2 1 7 9 9
44 40 38 39 31 32 31 28 22 17 17 16 13 11 9 6 6 9 9 11 11 12 17 24 30 35 40 43 41 38 36 32 25 22 21 13 13 9 8 5 3 9 8 12
45 41 40 39 35 34 33 28 22 20 18 15 12 8 6 4 6 8 8 7 10 16 23 29 35 40 43 44 38 32 27 20 14 17 15 15 13 13 12 6 8 13 16 13
46 43 44 41 38 37 32 26 21 19 17 15 10 7 5 4 5 5 4 9 15 22 29 35 41 45 46 41 27 17 16 18 14 17 19 17 15 17 14 12 16 19 18 14
48 47 45 42 40 37 32 26 22 19 16 13 9 6 3 3 3 2 7 12 19 27 32 41 39 34 29 22 10 11 17 27 23 20 23 22 23 20 17 26 25 23 16 15
50 52 50 44 43 38 30 25 22 19 17 14 11 7 4 2 2 3 9 16 23 31 37 36 32 28 24 18 27 33 31 31 24 27 19 23 25 21 23 22 19 14 13 14
54 55 50 48 43 36 30 24 22 21 17 14 11 9 6 6 2 4 12 18 22 28 29 38 40 38 32 29 32 33 26 28 23 22 22 28 24 23 21 19 16 11 12 12
58 54 52 48 41 35 30 25 22 20 16 15 13 9 8 6 3 8 17 21 20 23 32 32 35 36 38 36 34 33 24 16 18 18 28 26 24 22 18 15 12 8 9 11
58 54 52 46 40 36 31 26 23 20 17 14 14 12 10 6 4 9 18 19 20 16 24 30 31 32 30 28 28 30 28 20 18 23 22 23 21 18 13 10 7 5 7 11
58 55 51 46 43 38 31 25 23 20 16 13 14 12 10 7 6 13 17 21 16 15 21 27 29 28 30 25 23 20 21 20 17 14 20 23 20 17 12 7 4 3 6 10
58 54 51 49 44 37 29 27 25 23 20 17 15 14 11 7 8 14 18 20 17 11 17 20 23 21 22 23 22 20 18 15 15 13 19 19 17 15 11 8 4 1 5 9
58 57 53 47 40 36 30 27 23 21 18 18 17 16 12 8 8 13 16 19 19 11 9 12 14 16 17 17 17 19 19 17 14 13 15 11 14 12 10 9 6 6 8 9
60 55 50 45 40 34 27 24 19 22 20 19 18 16 12 9 9 11 15 18 20 17 8 8 10 10 13 15 14 14 16 16 13 10 9 7 7 7 8 10 10 10 9 7
58 56 52 46 41 35 31 28 26 21 20 18 20 16 13 10 8 10 13 17 19 21 18 9 4 6 11 10 10 8 10 11 12 12 5 4 6 5 4 4 7 6 5 6
59 55 50 46 41 36 32 28 26 24 21 18 17 16 12 9 9 8 11 13 18 19 20 20 14 7 6 6 8 7 5 6 7 8 8 4 2 1 4 6 6 7 6 6
57 53 50 45 40 37 33 31 27 23 22 21 18 18 16 11 8 8 8 11 14 18 19 20 22 18 10 3 3 3 5 6 7 7 8 9 6 2 2 2 5 7 8 8
56 53 48 45 41 37 33 31 27 24 21 21 20 19 16 13 11 9 7 9 10 13 15 19 20 19 19 17 11 4 2 3 4 5 6 7 8 7 4 5 6 7 8 10
52 48 45 43 41 37 33 31 28 25 21 19 18 15 15 15 12 8 6 7 7 9 11 14 17 17 18 17 14 10 7 5 4 5 6 6 8 8 8 7 8 9 10 11
50 49 46 43 41 38 33 30 27 24 20 18 17 16 15 13 11 9 7 5 4 4 7 11 12 13 14 14 14 13 10 7 6 7 8 9 9 10 11 11 10 10 11 12
53 50 47 46 42 36 29 26 25 24 22 19 17 16 14 13 11 10 8 6 4 3 4 6 9 10 11 11 10 10 11 11 8 6 6 9 11 13 12 13 15 17 17 15
52 48 45 41 36 31 26 25 25 25 23 19 16 16 15 13 11 10 9 7 5 3 0 3 5 7 8 10 11 11 10 10 10 11 10 9 9 10 13 15 19 18 18 20
47 46 42 38 36 30 28 27 27 25 24 22 19 16 14 13 12 11 9 7 6 5 5 5 7 8 9 11 13 13 14 14 14 15 15 15 14 15 14 15 18 21 25 24
46 41 38 36 32 29 28 26 25 24 23 22 19 17 15 12 11 10 9 9 9 9 10 10 11 11 12 15 16 17 17 17 18 20 21 21 20 19 18 18 20 24 26 27
Wind_Direction
203 199 193 192 187 192 188 190 187 180 179 181 199 217 223 219 222 234 249 260 263 268 270 268 269 274 285 289 299 307 309 304 316 344 343 327 294 304 300 311 339 341 337 348
198 196 196 193 194 196 186 187 178 178 182 200 203 205 210 214 226 239 252 262 270 275 264 269 272 281 282 289 295 300 299 293 300 322 302 297 262 274 290 309 331 333 344 347
195 196 200 197 195 186 177 175 184 186 198 198 213 205 202 209 226 248 263 277 278 273 268 272 281 281 285 289 291 294 292 291 283 281 264 261 244 271 284 306 329 325 344 344
192 194 198 190 191 182 191 175 187 197 196 205 206 199 208 216 238 266 274 282 289 280 275 279 285 288 288 290 290 290 288 277 261 254 245 249 244 255 266 294 304 323 343 358
189 194 198 188 181 179 184 188 191 196 199 194 195 198 208 230 257 284 285 293 292 280 280 287 290 289 291 293 288 282 277 266 256 242 237 244 232 224 236 285 352 345 10 58
188 190 193 185 182 192 189 191 190 191 189 189 196 200 222 244 276 288 293 291 288 293 295 298 301 303 303 298 289 276 269 264 251 237 232 211 211 190 155 146 38 43 65 91
188 190 185 180 185 183 183 187 192 191 189 188 193 204 225 255 280 287 299 292 305 313 310 313 316 312 304 295 289 278 258 234 221 218 202 189 195 163 138 91 68 91 93 84
187 186 178 175 183 180 180 186 195 187 184 186 186 195 213 257 280 290 298 329 329 324 331 331 326 320 312 311 305 255 221 194 184 184 165 170 187 150 120 99 101 103 99 83
185 180 174 180 177 177 180 181 179 183 190 186 174 181 212 240 250 287 349 344 344 347 343 342 340 334 329 326 332 140 158 152 165 161 168 164 158 139 121 114 113 110 96 68
181 178 177 177 177 177 174 176 174 178 184 173 171 174 187 178 151 12 359 7 4 355 4 15 18 18 28 56 103 109 117 157 142 157 165 152 151 131 130 131 121 109 81 59
178 175 175 175 176 172 174 174 172 179 177 178 172 171 153 149 117 25 20 21 22 19 37 40 41 49 59 79 105 126 128 140 139 146 154 149 144 134 134 127 118 106 74 52
175 173 173 174 172 171 170 171 175 176 178 172 172 154 145 146 101 34 35 39 34 43 51 49 50 58 64 77 96 110 113 102 114 136 143 148 143 140 139 132 117 95 63 44
172 172 172 170 169 170 172 174 171 173 174 176 164 147 154 152 95 47 52 47 50 51 54 54 58 65 69 80 85 85 95 96 111 132 144 151 150 153 147 137 115 78 46 34
171 171 168 168 170 173 172 169 169 166 168 175 164 149 158 158 91 62 55 55 66 61 59 59 60 63 76 75 77 84 84 86 88 122 148 161 160 164 168 162 148 80 15 23
169 168 168 172 173 172 172 170 174 171 169 168 158 156 161 161 94 70 64 64 72 89 73 64 60 62 61 72 76 79 81 88 97 123 151 165 172 179 186 192 205 289 340 3
167 169 170 172 171 170 171 176 176 174 166 172 156 159 163 152 99 73 71 68 73 90 93 72 62 68 65 73 76 76 77 74 89 119 155 165 187 201 214 232 252 284 316 341
169 167 167 169 170 169 167 167 174 176 170 173 158 161 161 153 111 81 75 76 76 76 99 100 77 74 90 88 82 73 74 72 77 117 150 161 187 214 237 257 277 294 309 327
165 168 169 170 169 168 170 173 174 173 169 173 161 163 161 153 121 95 79 79 83 79 77 83 112 88 96 87 82 73 72 70 65 61 77 216 232 241 252 246 250 267 301 316
168 168 170 171 169 170 171 173 178 176 170 171 168 155 161 160 138 107 90 77 79 80 82 78 79 109 121 101 73 68 69 52 52 53 43 37 14 329 257 264 260 262 283 301
168 168 171 169 171 173 174 177 182 177 172 169 172 166 159 160 152 124 102 85 79 79 83 87 82 77 92 160 124 81 67 62 57 50 39 34 27 290 8 342 288 277 272 284
169 172 171 172 173 176 177 180 181 181 178 174 174 172 169 167 159 146 120 95 79 76 78 83 81 86 86 80 75 69 35 33 39 37 27 25 21 13 341 324 325 288 284 285
170 170 173 176 175 179 183 184 183 183 181 179 173 173 179 175 171 165 142 118 88 82 70 68 66 67 74 83 86 79 61 40 352 318 313 327 341 337 334 318 298 302 296 282
168 172 178 177 180 183 186 185 182 182 181 175 178 183 182 182 188 182 167 147 114 95 79 72 65 57 54 58 72 85 97 80 39 14 359 344 323 309 305 307 309 306 294 288
173 177 179 182 181 183 185 183 183 183 182 185 185 183 182 188 193 192 188 177 162 136 79 66 54 48 45 47 47 41 36 37 42 34 351 331 325 331 329 316 300 297 296 297
177 180 183 181 179 184 186 186 188 190 189 188 189 193 196 195 197 203 202 197 195 204 106 26 25 17 13 13 10 7 3 3 5 1 355 350 343 332 322 319 314 308 299 295
179 184 181 179 183 186 190 190 193 192 195 199 199 200 203 208 208 211 212 212 229 249 278 310 320 329 336 343 345 337 330 328 329 324 325 326 314 309 313 312 309 308 311 314
182 182 182 184 185 189 193 193 196 199 202 205 208 212 217 220 224 230 233 238 251 261 278 290 300 302 311 322 326 324 317 315 315 311 311 312 310 308 303 307 311 312 308 310
Height
5696 5702 5709 5714 5719 5722 5728 5732 5737 5741 5744 5749 5751 5754 5756 5758 5759 5760 5762 5762 5763 5763 5762 5763 5763 5763 5761 5760 5758 5756 5754 5752 5751 5750 5747 5743 5742 5739 5737 5736 5736 5733 5732 5730
5691 5698 5705 5711 5716 5721 5726 5731 5736 5741 5743 5748 5750 5751 5754 5757 5758 5759 5760 5760 5760 5759 5759 5760 5759 5757 5757 5754 5752 5750 5749 5747 5746 5745 5744 5741 5739 5737 5736 5735 5734 5732 5731 5729
5686 5694 5702 5708 5713 5719 5725 5729 5736 5740 5743 5745 5748 5750 5752 5755 5757 5758 5758 5757 5756 5756 5756 5755 5755 5754 5751 5748 5745 5742 5741 5741 5740 5740 5739 5737 5736 5735 5734 5734 5733 5731 5730 5728
5680 5689 5698 5705 5711 5717 5723 5728 5735 5740 5742 5744 5747 5750 5752 5754 5756 5756 5755 5755 5754 5754 5752 5751 5750 5748 5744 5741 5737 5734 5733 5732 5732 5732 5733 5732 5732 5733 5732 5732 5732 5731 5730 5727
5672 5684 5696 5702 5709 5716 5723 5729 5733 5738 5741 5744 5747 5749 5751 5753 5753 5754 5753 5753 5752 5750 5748 5747 5743 5740 5735 5732 5727 5723 5720 5720 5723 5724 5726 5727 5729 5730 5731 5732 5732 5731 5729 5727
5668 5679 5689 5699 5706 5714 5721 5726 5731 5737 5739 5742 5746 5748 5750 5751 5752 5752 5751 5751 5749 5748 5745 5741 5736 5730 5723 5716 5711 5707 5706 5708 5713 5716 5720 5723 5728 5728 5729 5731 5731 5731 5730 5729
5663 5675 5686 5695 5705 5712 5717 5725 5730 5734 5738 5742 5745 5746 5748 5750 5750 5750 5750 5749 5747 5745 5740 5736 5729 5718 5708 5699 5693 5690 5692 5698 5704 5710 5716 5722 5726 5728 5730 5731 5732 5731 5732 5733
5660 5672 5683 5693 5701 5709 5717 5724 5730 5734 5737 5740 5743 5745 5748 5748 5749 5749 5749 5747 5745 5741 5735 5727 5717 5704 5689 5678 5675 5675 5681 5692 5700 5708 5713 5722 5725 5729 5731 5732 5734 5734 5734 5735
5657 5669 5681 5690 5699 5708 5715 5721 5728 5732 5737 5740 5742 5745 5747 5748 5749 5749 5747 5747 5743 5737 5729 5718 5705 5691 5678 5668 5663 5668 5676 5689 5699 5708 5713 5719 5725 5729 5732 5734 5735 5736 5737 5736
5654 5667 5678 5688 5697 5706 5714 5722 5726 5732 5736 5738 5742 5745 5747 5748 5748 5748 5748 5745 5740 5732 5723 5713 5702 5690 5678 5670 5669 5675 5686 5692 5703 5709 5715 5721 5728 5731 5734 5737 5741 5738 5739 5738
5652 5665 5676 5686 5696 5706 5713 5720 5724 5731 5734 5738 5741 5744 5745 5747 5749 5748 5747 5745 5739 5731 5727 5717 5710 5697 5691 5686 5686 5689 5696 5702 5709 5714 5719 5726 5730 5734 5738 5739 5740 5741 5740 5740
5650 5663 5674 5684 5696 5705 5712 5719 5725 5729 5735 5738 5741 5743 5744 5747 5748 5748 5746 5743 5739 5735 5730 5725 5719 5713 5709 5706 5705 5709 5711 5712 5716 5720 5726 5730 5734 5737 5739 5741 5742 5743 5743 5742
5648 5661 5672 5685 5696 5705 5711 5717 5723 5729 5733 5737 5739 5741 5745 5748 5748 5747 5746 5743 5741 5739 5735 5731 5728 5724 5720 5718 5718 5719 5721 5722 5724 5729 5732 5735 5738 5740 5742 5744 5744 5745 5745 5743
5647 5660 5673 5685 5694 5701 5711 5716 5723 5728 5733 5736 5740 5741 5745 5747 5748 5747 5746 5744 5742 5741 5738 5736 5734 5733 5729 5728 5728 5728 5728 5729 5730 5733 5735 5738 5741 5743 5745 5746 5746 5746 5746 5745
5647 5661 5673 5682 5692 5702 5709 5714 5721 5726 5732 5735 5738 5742 5745 5747 5747 5746 5747 5746 5743 5743 5741 5741 5740 5739 5738 5736 5734 5734 5733 5733 5735 5736 5738 5741 5743 5744 5745 5746 5747 5747 5747 5746
5647 5660 5671 5683 5694 5701 5707 5715 5721 5726 5731 5734 5737 5741 5745 5747 5747 5747 5748 5747 5745 5744 5744 5744 5744 5743 5743 5741 5741 5740 5738 5738 5738 5740 5742 5744 5745 5747 5748 5748 5748 5748 5748 5747
5647 5661 5674 5684 5693 5701 5709 5718 5724 5726 5729 5733 5737 5741 5745 5746 5747 5748 5748 5748 5747 5745 5746 5745 5746 5746 5746 5745 5745 5745 5744 5743 5742 5743 5744 5746 5746 5747 5748 5749 5750 5749 5748 5747
5650 5660 5671 5682 5691 5699 5707 5715 5720 5725 5729 5733 5736 5741 5744 5747 5748 5749 5749 5750 5749 5748 5748 5746 5747 5748 5747 5748 5748 5748 5747 5747 5746 5746 5746 5746 5746 5747 5747 5747 5747 5747 5747 5747
5648 5660 5671 5681 5689 5699 5706 5714 5720 5723 5729 5733 5737 5741 5744 5747 5749 5750 5751 5751 5750 5751 5750 5749 5748 5747 5749 5750 5749 5750 5749 5749 5748 5748 5747 5747 5746 5746 5746 5746 5746 5746 5746 5746
5649 5662 5672 5681 5689 5698 5705 5712 5719 5724 5727 5731 5735 5738 5743 5747 5749 5750 5752 5752 5751 5751 5752 5752 5751 5750 5749 5750 5750 5751 5751 5750 5750 5750 5749 5748 5747 5747 5746 5746 5746 5746 5745 5745
5651 5661 5673 5681 5689 5697 5704 5711 5717 5722 5727 5730 5734 5737 5741 5745 5748 5750 5752 5753 5753 5753 5754 5754 5753 5753 5752 5752 5751 5751 5751 5751 5751 5751 5750 5750 5749 5747 5746 5746 5745 5744 5744 5743
5654 5666 5674 5682 5688 5697 5704 5710 5716 5721 5726 5730 5733 5738 5741 5744 5747 5750 5752 5753 5753 5754 5755 5754 5754 5754 5754 5753 5753 5753 5752 5751 5751 5750 5750 5749 5748 5747 5746 5745 5743 5742 5741 5740
5656 5663 5672 5679 5687 5695 5702 5708 5715 5721 5726 5729 5733 5737 5739 5742 5746 5748 5751 5752 5753 5754 5754 5755 5755 5755 5754 5754 5754 5753 5753 5753 5751 5750 5749 5748 5746 5746 5745 5744 5742 5741 5739 5738
5652 5661 5670 5676 5685 5696 5705 5711 5715 5721 5725 5728 5732 5735 5738 5741 5744 5747 5749 5751 5753 5753 5754 5754 5755 5755 5755 5755 5754 5754 5753 5752 5752 5750 5749 5747 5746 5744 5742 5741 5740 5739 5737 5735
5652 5662 5670 5680 5691 5698 5704 5709 5713 5718 5722 5727 5730 5733 5737 5739 5742 5745 5747 5749 5751 5752 5753 5753 5753 5754 5754 5754 5753 5753 5752 5751 5750 5749 5748 5746 5745 5743 5741 5739 5736 5734 5733 5731
5655 5664 5672 5683 5690 5697 5702 5707 5711 5716 5720 5724 5728 5732 5735 5738 5740 5743 5745 5748 5749 5750 5751 5752 5752 5752 5752 5751 5751 5750 5749 5748 5747 5745 5744 5742 5740 5739 5738 5736 5733 5731 5728 5726
5654 5666 5675 5683 5690 5696 5700 5705 5710 5713 5718 5722 5726 5730 5733 5736 5738 5741 5744 5746 5747 5748 5748 5749 5749 5749 5749 5748 5748 5746 5745 5743 5742 5740 5739 5737 5736 5735 5733 5732 5730 5727 5723 5720